User: anonymous   Login
Location: Mentone
(34.5413°N, 85.5351°W)
Time: 20:26:24
(UTC-05:00)
Language:

Cosmos 2150 Rocket - Orbit

View from above orbital plane
View from above orbital plane
View from above satellite
View from above satellite

Ground track
Ground track

The orbit data is extracted from the following two-line orbital elements,

1 21419U 91041B   16145.02666041 -.00000002  00000-0  86500-5 0  9991
2 21419  74.0399 291.2943 0041783 312.6016 189.4053 14.33810212304690
Epoch (UTC): 24 May 2016 00:38:23
Eccentricity: 0.0041783
inclination: 74.0399°
perigee height: 749 km
apogee height: 809 km
right ascension of ascending node: 291.2943°
argument of perigee: 312.6016°
revolutions per day: 14.33810212
mean anomaly at epoch: 189.4053°
orbit number at epoch: 30469

The dashed part of the orbit path shows where the satellite is in the earth's shadow,  

DLR